| time (UTC) | temp F | wind direction | speed knots | gust knots | rain 1hr in | rain 24hr in | rain mn in | humidity % | barometer mb |
| 20260903035340 | 77 | 120 | 0.0 | 0.0 | 0.01 | 0.30 | 0.29 | 84 | 1014.6 |
| 20260903034353 | 78 | 120 | 0.0 | 0.0 | 0.01 | 0.30 | 0.29 | 84 | 1014.7 |
| 20260903033403 | 77 | 150 | 0.0 | 0.0 | 0.02 | 0.30 | 0.29 | 84 | 1014.6 |
| 20260903032349 | 77 | 166 | 0.0 | 0.0 | 0.02 | 0.30 | 0.29 | 84 | 1014.5 |
| 20260903031356 | 77 | 166 | 0.0 | 0.0 | 0.02 | 0.30 | 0.29 | 84 | 1014.6 |
| 20260903030347 | 77 | 166 | 0.0 | 0.9 | 0.02 | 0.29 | 0.28 | 84 | 1014.5 |
| 20260903025340 | 78 | 166 | 0.0 | 0.9 | 0.02 | 0.29 | 0.28 | 84 | 1014.7 |
| 20260903024337 | 77 | 123 | 0.0 | 0.9 | 0.03 | 0.29 | 0.28 | 84 | 1014.7 |
| 20260903023326 | 77 | 157 | 0.0 | 0.0 | 0.02 | 0.28 | 0.27 | 84 | 1014.7 |
| 20260903022359 | 77 | 157 | 0.0 | 0.0 | 0.03 | 0.28 | 0.27 | 84 | 1014.8 |
| 20260903021349 | 77 | 176 | 0.0 | 0.0 | 0.04 | 0.28 | 0.27 | 84 | 1014.8 |
| 20260903020340 | 77 | 176 | 0.0 | 0.9 | 0.04 | 0.27 | 0.26 | 84 | 1014.7 |
| 20260903015330 | 77 | 160 | 0.0 | 0.9 | 0.05 | 0.27 | 0.26 | 83 | 1014.8 |
| 20260903014404 | 77 | 160 | 0.0 | 0.9 | 0.05 | 0.26 | 0.25 | 83 | 1014.6 |
| 20260903013334 | 77 | 100 | 0.0 | 0.0 | 0.06 | 0.26 | 0.25 | 83 | 1014.7 |
| 20260903012402 | 77 | 100 | 0.0 | 0.9 | 0.07 | 0.25 | 0.24 | 84 | 1014.6 |
| 20260903011332 | 77 | 139 | 0.0 | 0.9 | 0.08 | 0.24 | 0.23 | 83 | 1014.4 |
| 20260903010404 | 77 | 139 | 0.0 | 0.9 | 0.08 | 0.23 | 0.22 | 83 | 1014.3 |
| 20260903005334 | 77 | 147 | 0.0 | 0.0 | 0.08 | 0.22 | 0.21 | 83 | 1014.3 |
| 20260903003400 | 77 | 130 | 0.0 | 0.9 | 0.06 | 0.20 | 0.19 | 82 | 1013.5 |
| 20260903002336 | 77 | 127 | 0.0 | 0.9 | 0.04 | 0.18 | 0.17 | 81 | 1013.6 |
| 20260903001325 | 77 | 101 | 0.0 | 0.0 | 0.03 | 0.16 | 0.15 | 80 | 1013.7 |
| 20260903000315 | 78 | 95 | 0.0 | 0.9 | 0.02 | 0.15 | 0.14 | 80 | 1013.8 |
| 20260902235405 | 77 | 92 | 0.0 | 0.0 | 0.01 | 0.15 | 0.13 | 81 | 1013.9 |
| 20260902234333 | 77 | 92 | 0.0 | 0.9 | 0.01 | 0.15 | 0.13 | 82 | 1013.8 |
| 20260902233402 | 76 | 120 | 0.0 | 0.9 | 0.02 | 0.15 | 0.13 | 81 | 1014.0 |
| 20260902232353 | 77 | 101 | 0.0 | 0.9 | 0.04 | 0.15 | 0.13 | 81 | 1014.2 |
| 20260902231402 | 77 | 101 | 0.0 | 0.9 | 0.05 | 0.14 | 0.12 | 80 | 1014.1 |
| 20260902230336 | 78 | 101 | 0.0 | 0.9 | 0.05 | 0.14 | 0.12 | 80 | 1013.7 |
| 20260902225359 | 78 | 108 | 0.0 | 0.9 | 0.05 | 0.14 | 0.12 | 80 | 1014.2 |
| 20260902224357 | 78 | 101 | 0.0 | 1.7 | 0.05 | 0.14 | 0.12 | 79 | 1014.4 |
| 20260902223324 | 78 | 90 | 0.0 | 3.5 | 0.04 | 0.13 | 0.11 | 78 | 1014.2 |
| 20260902222354 | 79 | 91 | 0.0 | 4.3 | 0.03 | 0.12 | 0.10 | 77 | 1014.0 |
| 20260902221344 | 80 | 70 | 2.6 | 6.1 | 0.00 | 0.09 | 0.07 | 74 | 1013.5 |
| 20260902220411 | 80 | 59 | 1.7 | 7.0 | 0.00 | 0.09 | 0.07 | 72 | 1013.3 |
| 20260902215347 | 83 | 65 | 1.7 | 6.1 | 0.00 | 0.09 | 0.07 | 71 | 1013.4 |
| 20260902214423 | 84 | 91 | 0.0 | 2.6 | 0.00 | 0.09 | 0.07 | 72 | 1013.2 |
| 20260902213423 | 84 | 86 | 0.0 | 1.7 | 0.00 | 0.09 | 0.07 | 71 | 1012.9 |
| 20260902212351 | 84 | 201 | 0.9 | 4.3 | 0.00 | 0.09 | 0.07 | 71 | 1012.4 |
| 20260902211348 | 84 | 224 | 1.7 | 5.2 | 0.07 | 0.09 | 0.07 | 71 | 1012.5 |
| 20260902210315 | 83 | 235 | 0.9 | 2.6 | 0.07 | 0.09 | 0.07 | 75 | 1012.6 |
| 20260902205402 | 83 | 191 | 0.0 | 1.7 | 0.07 | 0.09 | 0.07 | 78 | 1012.3 |
| 20260902204337 | 83 | 172 | 0.0 | 2.6 | 0.07 | 0.09 | 0.07 | 79 | 1012.4 |
| 20260902203400 | 83 | 145 | 0.0 | 0.9 | 0.07 | 0.09 | 0.07 | 76 | 1012.5 |
| 20260902202334 | 86 | 192 | 0.9 | 6.1 | 0.07 | 0.09 | 0.07 | 69 | 1012.8 |
| 20260902201403 | 94 | 241 | 0.9 | 5.2 | 0.00 | 0.02 | 0.00 | 54 | 1012.6 |
| 20260902200353 | 93 | 174 | 0.9 | 3.5 | 0.00 | 0.02 | 0.00 | 50 | 1012.7 |
| 20260902195321 | 95 | 175 | 0.0 | 2.6 | 0.00 | 0.02 | 0.00 | 49 | 1012.8 |
| 20260902194355 | 93 | 144 | 0.9 | 4.3 | 0.00 | 0.02 | 0.00 | 52 | 1013.1 |
| 20260902193344 | 92 | 227 | 0.9 | 2.6 | 0.00 | 0.02 | 0.00 | 52 | 1013.1 |
| 20260902192332 | 93 | 200 | 0.9 | 5.2 | 0.00 | 0.02 | 0.00 | 51 | 1013.4 |
| 20260902191320 | 93 | 238 | 0.9 | 3.5 | 0.00 | 0.02 | 0.00 | 50 | 1013.4 |
| 20260902190320 | 92 | 209 | 0.9 | 6.1 | 0.00 | 0.02 | 0.00 | 52 | 1013.7 |
| 20260902185408 | 95 | 276 | 0.9 | 4.3 | 0.00 | 0.02 | 0.00 | 49 | 1013.8 |
| 20260902184359 | 94 | 212 | 0.0 | 3.5 | 0.00 | 0.02 | 0.00 | 50 | 1014.0 |
| 20260902183402 | 93 | 188 | 1.7 | 4.3 | 0.00 | 0.02 | 0.00 | 52 | 1014.2 |
| 20260902182336 | 93 | 184 | 0.9 | 4.3 | 0.00 | 0.02 | 0.00 | 52 | 1014.3 |
| 20260902180359 | 91 | 97 | 0.9 | 4.3 | 0.00 | 0.02 | 0.00 | 55 | 1014.6 |
| 20260902175346 | 90 | 260 | 0.0 | 3.5 | 0.00 | 0.02 | 0.00 | 55 | 1014.7 |
| 20260902174357 | 90 | 331 | 0.9 | 4.3 | 0.00 | 0.02 | 0.00 | 55 | 1014.8 |
| 20260902173344 | 90 | 195 | 1.7 | 4.3 | 0.00 | 0.02 | 0.00 | 56 | 1014.8 |
| 20260902172334 | 91 | 168 | 0.9 | 5.2 | 0.00 | 0.02 | 0.00 | 58 | 1014.9 |
| 20260902171405 | 89 | 231 | 0.9 | 4.3 | 0.00 | 0.02 | 0.00 | 60 | 1015.1 |
| 20260902170332 | 89 | 209 | 0.9 | 4.3 | 0.00 | 0.02 | 0.00 | 58 | 1015.3 |
| 20260902165403 | 89 | 243 | 1.7 | 3.5 | 0.00 | 0.02 | 0.00 | 57 | 1015.4 |
| 20260902164353 | 89 | 293 | 0.9 | 4.3 | 0.00 | 0.02 | 0.00 | 59 | 1015.4 |
| 20260902163323 | 89 | 208 | 1.7 | 4.3 | 0.00 | 0.02 | 0.00 | 60 | 1015.5 |
| 20260902162313 | 88 | 208 | 1.7 | 4.3 | 0.00 | 0.02 | 0.00 | 60 | 1015.7 |
| 20260902161401 | 89 | 243 | 0.9 | 5.2 | 0.00 | 0.02 | 0.00 | 59 | 1015.7 |
| 20260902160358 | 89 | 204 | 0.9 | 4.3 | 0.00 | 0.02 | 0.00 | 58 | 1015.8 |
| 20260902155325 | 89 | 181 | 0.0 | 3.5 | 0.00 | 0.02 | 0.00 | 61 | 1016.0 |
| 20260902154344 | 88 | 191 | 0.9 | 3.5 | 0.00 | 0.02 | 0.00 | 60 | 1016.2 |
| 20260902153335 | 88 | 295 | 0.9 | 3.5 | 0.00 | 0.02 | 0.00 | 61 | 1016.3 |
| 20260902152343 | 87 | 226 | 0.9 | 4.3 | 0.00 | 0.02 | 0.00 | 64 | 1016.4 |
| 20260902151333 | 86 | 335 | 0.9 | 3.5 | 0.00 | 0.02 | 0.00 | 67 | 1016.5 |
| 20260902150408 | 85 | 214 | 0.9 | 3.5 | 0.00 | 0.02 | 0.00 | 66 | 1016.4 |
| 20260902145357 | 85 | 194 | 0.9 | 2.6 | 0.00 | 0.02 | 0.00 | 69 | 1016.5 |
| 20260902144347 | 83 | 189 | 0.9 | 4.3 | 0.00 | 0.02 | 0.00 | 73 | 1016.4 |
| 20260902143337 | 82 | 260 | 0.9 | 2.6 | 0.00 | 0.02 | 0.00 | 73 | 1016.4 |
| 20260902142336 | 82 | 219 | 0.9 | 5.2 | 0.00 | 0.02 | 0.00 | 74 | 1016.2 |
| 20260902141359 | 81 | 208 | 0.9 | 4.3 | 0.00 | 0.02 | 0.00 | 75 | 1016.2 |
| 20260902140349 | 81 | 143 | 0.9 | 2.6 | 0.00 | 0.02 | 0.00 | 77 | 1016.3 |
| 20260902135323 | 81 | 184 | 0.9 | 2.6 | 0.00 | 0.02 | 0.00 | 77 | 1016.4 |
| 20260902134313 | 80 | 181 | 0.0 | 3.5 | 0.00 | 0.02 | 0.00 | 78 | 1016.4 |
| 20260902133346 | 80 | 227 | 0.9 | 2.6 | 0.00 | 0.02 | 0.00 | 79 | 1016.4 |
| 20260902132335 | 79 | 169 | 0.0 | 2.6 | 0.00 | 0.02 | 0.00 | 81 | 1016.2 |
| 20260902131342 | 78 | 186 | 0.0 | 2.6 | 0.00 | 0.02 | 0.00 | 82 | 1016.2 |
| 20260902130333 | 78 | 219 | 0.9 | 2.6 | 0.00 | 0.02 | 0.00 | 82 | 1016.2 |
| 20260902125400 | 77 | 207 | 0.9 | 3.5 | 0.00 | 0.02 | 0.00 | 83 | 1016.3 |
| 20260902124326 | 77 | 185 | 0.9 | 2.6 | 0.00 | 0.02 | 0.00 | 83 | 1016.3 |
| 20260902123340 | 77 | 127 | 0.9 | 2.6 | 0.00 | 0.02 | 0.00 | 83 | 1016.2 |
| 20260902122409 | 77 | 208 | 0.9 | 2.6 | 0.00 | 0.02 | 0.00 | 84 | 1016.1 |
| 20260902121358 | 76 | 184 | 0.0 | 2.6 | 0.00 | 0.02 | 0.00 | 84 | 1016.1 |
| 20260902120348 | 76 | 171 | 0.0 | 0.9 | 0.00 | 0.02 | 0.00 | 84 | 1016.0 |
| 20260902115357 | 76 | 169 | 0.0 | 0.9 | 0.00 | 0.02 | 0.00 | 84 | 1015.9 |
| 20260902114329 | 75 | 168 | 0.0 | 0.0 | 0.00 | 0.02 | 0.00 | 84 | 1015.9 |
| 20260902113319 | 75 | 168 | 0.0 | 0.0 | 0.00 | 0.02 | 0.00 | 84 | 1016.1 |
| 20260902112405 | 75 | 168 | 0.0 | 0.0 | 0.00 | 0.02 | 0.00 | 84 | 1015.8 |
| 20260902111333 | 75 | 168 | 0.0 | 0.0 | 0.00 | 0.02 | 0.00 | 84 | 1015.6 |
| 20260902110406 | 75 | 168 | 0.0 | 0.0 | 0.00 | 0.02 | 0.00 | 84 | 1015.6 |
| 20260902105334 | 75 | 168 | 0.0 | 0.0 | 0.00 | 0.02 | 0.00 | 84 | 1015.6 |
| 20260902104404 | 75 | 168 | 0.0 | 0.0 | 0.00 | 0.02 | 0.00 | 84 | 1015.4 |
| 20260902103332 | 75 | 168 | 0.0 | 0.0 | 0.00 | 0.02 | 0.00 | 84 | 1015.3 |
| 20260902102407 | 75 | 168 | 0.0 | 0.9 | 0.00 | 0.02 | 0.00 | 84 | 1015.3 |
| 20260902101357 | 75 | 168 | 0.0 | 0.0 | 0.00 | 0.02 | 0.00 | 84 | 1015.2 |
| 20260902100354 | 75 | 168 | 0.0 | 0.0 | 0.00 | 0.02 | 0.00 | 84 | 1015.2 |
| 20260902095344 | 75 | 168 | 0.0 | 0.0 | 0.00 | 0.03 | 0.00 | 84 | 1015.1 |
| 20260902094407 | 75 | 168 | 0.0 | 0.9 | 0.00 | 0.03 | 0.00 | 84 | 1015.0 |
| 20260902093340 | 75 | 168 | 0.0 | 0.0 | 0.00 | 0.03 | 0.00 | 84 | 1015.1 |
| 20260902092328 | 75 | 169 | 0.0 | 0.0 | 0.00 | 0.03 | 0.00 | 84 | 1015.0 |
| 20260902091418 | 75 | 169 | 0.0 | 0.0 | 0.00 | 0.03 | 0.00 | 84 | 1014.9 |
| 20260902090330 | 75 | 169 | 0.0 | 0.0 | 0.00 | 0.03 | 0.00 | 84 | 1014.7 |
| 20260902085312 | 76 | 169 | 0.0 | 0.0 | 0.00 | 0.03 | 0.00 | 84 | 1014.7 |
| 20260902084315 | 76 | 169 | 0.0 | 0.9 | 0.00 | 0.03 | 0.00 | 84 | 1014.6 |
| 20260902083309 | 76 | 169 | 0.0 | 0.0 | 0.00 | 0.03 | 0.00 | 84 | 1014.6 |
| 20260902082318 | 76 | 185 | 0.0 | 0.0 | 0.00 | 0.03 | 0.00 | 84 | 1014.6 |
| 20260902081313 | 76 | 185 | 0.0 | 0.0 | 0.00 | 0.03 | 0.00 | 84 | 1014.7 |
| 20260902080321 | 76 | 185 | 0.0 | 0.0 | 0.00 | 0.03 | 0.00 | 84 | 1014.8 |
| 20260902075335 | 76 | 185 | 0.0 | 0.9 | 0.00 | 0.03 | 0.00 | 84 | 1014.7 |
| 20260902074327 | 76 | 186 | 0.0 | 0.0 | 0.00 | 0.03 | 0.00 | 84 | 1014.7 |
| 20260902073315 | 76 | 186 | 0.0 | 0.9 | 0.00 | 0.03 | 0.00 | 84 | 1014.8 |
| 20260902072310 | 76 | 186 | 0.0 | 0.9 | 0.00 | 0.03 | 0.00 | 84 | 1014.8 |
| 20260902071318 | 76 | 186 | 0.0 | 0.9 | 0.00 | 0.03 | 0.00 | 84 | 1015.0 |
| 20260902070312 | 76 | 161 | 0.0 | 0.9 | 0.00 | 0.03 | 0.00 | 83 | 1015.0 |
| 20260902065318 | 76 | 158 | 0.0 | 0.0 | 0.00 | 0.03 | 0.00 | 83 | 1015.0 |
| 20260902064353 | 76 | 158 | 0.0 | 0.0 | 0.00 | 0.03 | 0.00 | 83 | 1015.0 |
| 20260902063422 | 77 | 158 | 0.0 | 0.0 | 0.00 | 0.03 | 0.00 | 84 | 1015.1 |
| 20260902062351 | 77 | 158 | 0.0 | 0.9 | 0.00 | 0.03 | 0.00 | 83 | 1015.1 |
| 20260902061400 | 77 | 155 | 0.0 | 0.0 | 0.00 | 0.03 | 0.00 | 83 | 1015.2 |
| 20260902060311 | 77 | 155 | 0.0 | 0.9 | 0.00 | 0.03 | 0.00 | 83 | 1015.3 |
| 20260902055341 | 77 | 127 | 0.0 | 0.0 | 0.00 | 0.03 | 0.00 | 83 | 1015.3 |
| 20260902054331 | 77 | 127 | 0.0 | 0.0 | 0.00 | 0.03 | 0.00 | 83 | 1015.4 |
| 20260902053401 | 77 | 127 | 0.0 | 0.0 | 0.00 | 0.03 | 0.00 | 83 | 1015.4 |
| 20260902052349 | 77 | 127 | 0.0 | 0.0 | 0.01 | 0.03 | 0.00 | 83 | 1015.5 |
| 20260902051342 | 77 | 122 | 0.0 | 0.9 | 0.01 | 0.03 | 0.00 | 83 | 1015.6 |
| 20260902050332 | 77 | 137 | 0.0 | 0.9 | 0.01 | 0.03 | 0.00 | 83 | 1015.5 |
| 20260902045358 | 77 | 135 | 0.0 | 0.9 | 0.01 | 0.03 | 0.03 | 83 | 1015.5 |
| 20260902044328 | 77 | 134 | 0.0 | 0.0 | 0.01 | 0.03 | 0.03 | 82 | 1015.6 |
| 20260902043358 | 78 | 133 | 0.0 | 0.9 | 0.01 | 0.03 | 0.03 | 82 | 1015.7 |
| 20260902042407 | 77 | 152 | 0.0 | 0.0 | 0.00 | 0.02 | 0.02 | 83 | 1015.7 |
| 20260902041357 | 77 | 152 | 0.0 | 0.0 | 0.00 | 0.02 | 0.02 | 83 | 1015.8 |
| 20260902040347 | 78 | 152 | 0.0 | 0.0 | 0.00 | 0.02 | 0.02 | 83 | 1015.9 |